Starlink 11254

operational
NORAD ID: 60731 Int'l Des: 2024-152 Owner: SPXS Country: US Constellation: starlink
LEOCIRCULAR

关于 Starlink 11254

正在加载描述...

实时位置

正在加载3D地球...

即将过境

高度历史

Altitude vs Time

uPlot chart will show altitude changes over time

两行轨道根数

1 60731U 24152M 25259.39111873 -.00002337 00000-0 -14458-4 0 9990
2 60731 53.1600 255.1792 0000146 156.7031 203.3994 15.69696485 61476
Epoch: Sep 16, 2025 • Age: 37 hours

当前状态

高度 361.5 km
速度 7.70 km/s
星下点 30.75°N, 64.26°E
发射日期 Aug 28, 2024
运行时间 1 years
类型 internet

技术详情

分类 Payload
质量 960.00 kg
干质量 910.00 kg
总质量 960.00 kg
长度 0.30 m
直径 4.10 m
跨度 29.00 m
形状 Box + pan
制造商 SPXS
平台类型 Starlink V2MD
阶段状态 In Orbit
所有者/国家 SPXS/US

大型星座

Loading constellations...